Time,TemperatureF,DewpointF,PressureIn,WindDirection,WindDirectionDegrees,WindSpeedMPH,WindSpeedGustMPH,Humidity,HourlyPrecipIn,Conditions,Clouds,dailyrainin,SoftwareType,DateUTC
2013-01-31 00:00:00,51.8,30.0,30.25,WNW,302,0.0,1.0,43,0.00,,,0.00,Wunderground v.1.15,2013-01-31 08:00:00,
2013-01-31 00:10:00,51.8,30.6,30.25,NW,318,0.0,0.0,44,0.00,,,0.00,Wunderground v.1.15,2013-01-31 08:10:00,
2013-01-31 00:15:00,51.7,29.9,30.25,NE,40,0.0,0.0,43,0.00,,,0.00,Wunderground v.1.15,2013-01-31 08:15:00,
2013-01-31 00:25:00,51.4,29.1,30.25,NNE,19,0.0,0.0,42,0.00,,,0.00,Wunderground v.1.15,2013-01-31 08:25:00,
2013-01-31 00:30:00,51.5,29.7,30.25,North,351,1.0,1.0,43,0.00,,,0.00,Wunderground v.1.15,2013-01-31 08:30:00,
2013-01-31 00:35:00,51.7,29.9,30.24,NE,43,1.0,1.0,43,0.00,,,0.00,Wunderground v.1.15,2013-01-31 08:35:00,
2013-01-31 00:40:00,52.0,29.6,30.24,North,6,1.0,1.0,42,0.00,,,0.00,Wunderground v.1.15,2013-01-31 08:40:00,
2013-01-31 00:45:00,52.2,29.8,30.24,NW,309,1.0,1.0,42,0.00,,,0.00,Wunderground v.1.15,2013-01-31 08:45:00,
2013-01-31 00:50:00,52.2,29.8,30.24,NNE,14,1.0,1.0,42,0.00,,,0.00,Wunderground v.1.15,2013-01-31 08:50:00,
2013-01-31 00:55:00,52.1,29.1,30.24,NNE,19,1.0,1.0,41,0.00,,,0.00,Wunderground v.1.15,2013-01-31 08:55:00,
2013-01-31 01:05:00,52.1,29.1,30.24,WNW,284,1.0,1.0,41,0.00,,,0.00,Wunderground v.1.15,2013-01-31 09:05:00,
2013-01-31 01:15:00,51.7,29.9,30.24,NNW,344,0.0,1.0,43,0.00,,,0.00,Wunderground v.1.15,2013-01-31 09:15:00,
2013-01-31 01:20:00,51.4,30.2,30.24,ENE,76,0.0,0.0,44,0.00,,,0.00,Wunderground v.1.15,2013-01-31 09:20:00,
2013-01-31 01:25:00,51.6,29.8,30.24,West,281,0.0,0.0,43,0.00,,,0.00,Wunderground v.1.15,2013-01-31 09:25:00,
2013-01-31 01:30:00,51.7,30.5,30.24,North,4,1.0,1.0,44,0.00,,,0.00,Wunderground v.1.15,2013-01-31 09:30:00,
2013-01-31 01:35:00,51.4,29.6,30.24,NE,51,1.0,1.0,43,0.00,,,0.00,Wunderground v.1.15,2013-01-31 09:35:00,
2013-01-31 01:45:00,51.7,29.9,30.24,NW,305,1.0,1.0,43,0.00,,,0.00,Wunderground v.1.15,2013-01-31 09:45:00,
2013-01-31 01:50:00,51.7,29.9,30.24,WNW,285,1.0,2.0,43,0.00,,,0.00,Wunderground v.1.15,2013-01-31 09:50:00,
2013-01-31 02:00:00,51.6,29.8,30.24,NW,319,1.0,1.0,43,0.00,,,0.00,Wunderground v.1.15,2013-01-31 10:00:00,
2013-01-31 02:10:00,51.2,30.6,30.24,NE,46,0.0,0.0,45,0.00,,,0.00,Wunderground v.1.15,2013-01-31 10:10:00,
2013-01-31 02:15:00,51.1,30.5,30.24,NE,56,0.0,0.0,45,0.00,,,0.00,Wunderground v.1.15,2013-01-31 10:15:00,
2013-01-31 02:20:00,50.9,30.8,30.24,West,277,0.0,1.0,46,0.00,,,0.00,Wunderground v.1.15,2013-01-31 10:20:00,
2013-01-31 02:25:00,50.8,30.7,30.24,NE,42,0.0,1.0,46,0.00,,,0.00,Wunderground v.1.15,2013-01-31 10:25:00,
2013-01-31 02:30:00,50.8,31.3,30.24,NE,54,0.0,0.0,47,0.00,,,0.00,Wunderground v.1.15,2013-01-31 10:30:00,
2013-01-31 02:35:00,50.8,31.3,30.24,ENE,72,0.0,0.0,47,0.00,,,0.00,Wunderground v.1.15,2013-01-31 10:35:00,
2013-01-31 02:45:00,50.7,31.7,30.23,North,1,0.0,1.0,48,0.00,,,0.00,Wunderground v.1.15,2013-01-31 10:45:00,
2013-01-31 02:55:00,50.6,32.1,30.23,East,89,0.0,0.0,49,0.00,,,0.00,Wunderground v.1.15,2013-01-31 10:55:00,
2013-01-31 03:00:00,50.8,32.3,30.23,ENE,60,0.0,0.0,49,0.00,,,0.00,Wunderground v.1.15,2013-01-31 11:00:00,
2013-01-31 03:10:00,50.7,32.7,30.22,WSW,245,0.0,0.0,50,0.00,,,0.00,Wunderground v.1.15,2013-01-31 11:10:00,
2013-01-31 03:15:00,50.7,32.7,30.22,NNW,336,0.0,0.0,50,0.00,,,0.00,Wunderground v.1.15,2013-01-31 11:15:00,
2013-01-31 03:20:00,50.8,32.3,30.22,East,94,0.0,0.0,49,0.00,,,0.00,Wunderground v.1.15,2013-01-31 11:20:00,
2013-01-31 03:25:00,50.9,32.4,30.22,SE,129,0.0,0.0,49,0.00,,,0.00,Wunderground v.1.15,2013-01-31 11:25:00,
2013-01-31 03:30:00,50.8,31.8,30.22,East,79,0.0,0.0,48,0.00,,,0.00,Wunderground v.1.15,2013-01-31 11:30:00,
2013-01-31 03:35:00,50.6,31.6,30.22,NE,56,0.0,0.0,48,0.00,,,0.00,Wunderground v.1.15,2013-01-31 11:35:00,
2013-01-31 03:45:00,50.6,30.6,30.22,NE,39,0.0,1.0,46,0.00,,,0.00,Wunderground v.1.15,2013-01-31 11:45:00,
2013-01-31 03:50:00,50.8,30.2,30.21,NNW,344,0.0,1.0,45,0.00,,,0.00,Wunderground v.1.15,2013-01-31 11:50:00,
2013-01-31 03:55:00,51.0,29.8,30.21,WSW,253,1.0,1.0,44,0.00,,,0.00,Wunderground v.1.15,2013-01-31 11:55:00,
2013-01-31 04:00:00,51.1,30.5,30.21,NNE,25,0.0,0.0,45,0.00,,,0.00,Wunderground v.1.15,2013-01-31 12:00:00,
2013-01-31 04:10:00,50.6,29.5,30.20,NNE,28,0.0,0.0,44,0.00,,,0.00,Wunderground v.1.15,2013-01-31 12:10:00,
2013-01-31 04:15:00,50.7,29.6,30.20,NNE,23,0.0,1.0,44,0.00,,,0.00,Wunderground v.1.15,2013-01-31 12:15:00,
2013-01-31 04:20:00,50.6,29.5,30.20,North,4,0.0,1.0,44,0.00,,,0.00,Wunderground v.1.15,2013-01-31 12:20:00,
2013-01-31 04:30:00,50.3,29.7,30.20,NW,308,0.0,1.0,45,0.00,,,0.00,Wunderground v.1.15,2013-01-31 12:30:00,
2013-01-31 04:40:00,50.3,30.3,30.20,WNW,297,0.0,0.0,46,0.00,,,0.00,Wunderground v.1.15,2013-01-31 12:40:00,
2013-01-31 04:45:00,50.2,30.2,30.20,North,351,0.0,0.0,46,0.00,,,0.00,Wunderground v.1.15,2013-01-31 12:45:00,
2013-01-31 04:50:00,50.2,30.2,30.20,NNE,15,0.0,0.0,46,0.00,,,0.00,Wunderground v.1.15,2013-01-31 12:50:00,
2013-01-31 04:55:00,50.3,30.3,30.20,NE,38,0.0,0.0,46,0.00,,,0.00,Wunderground v.1.15,2013-01-31 12:55:00,
2013-01-31 05:00:00,50.4,29.8,30.20,North,7,0.0,0.0,45,0.00,,,0.00,Wunderground v.1.15,2013-01-31 13:00:00,
2013-01-31 05:10:00,50.7,29.0,30.20,NNW,330,0.0,0.0,43,0.00,,,0.00,Wunderground v.1.15,2013-01-31 13:10:00,
2013-01-31 05:15:00,50.7,29.0,30.20,ENE,63,0.0,0.0,43,0.00,,,0.00,Wunderground v.1.15,2013-01-31 13:15:00,
2013-01-31 05:20:00,50.9,28.6,30.20,NNE,25,1.0,1.0,42,0.00,,,0.00,Wunderground v.1.15,2013-01-31 13:20:00,
2013-01-31 05:25:00,50.8,27.9,30.20,NNW,340,1.0,1.0,41,0.00,,,0.00,Wunderground v.1.15,2013-01-31 13:25:00,
2013-01-31 05:30:00,50.9,28.6,30.20,NNW,345,0.0,0.0,42,0.00,,,0.00,Wunderground v.1.15,2013-01-31 13:30:00,
2013-01-31 05:35:00,51.2,27.7,30.20,NW,322,1.0,2.0,40,0.00,,,0.00,Wunderground v.1.15,2013-01-31 13:35:00,
2013-01-31 05:45:00,50.8,27.9,30.20,NNW,328,1.0,2.0,41,0.00,,,0.00,Wunderground v.1.15,2013-01-31 13:45:00,
2013-01-31 05:50:00,50.5,28.8,30.20,NNW,335,1.0,1.0,43,0.00,,,0.00,Wunderground v.1.15,2013-01-31 13:50:00,
2013-01-31 05:55:00,50.4,28.1,30.20,NNW,340,1.0,1.0,42,0.00,,,0.00,Wunderground v.1.15,2013-01-31 13:55:00,
2013-01-31 06:05:00,50.9,26.2,30.19,North,349,1.0,1.0,38,0.00,,,0.00,Wunderground v.1.15,2013-01-31 14:05:00,
2013-01-31 06:10:00,51.2,27.1,30.20,East,82,0.0,0.0,39,0.00,,,0.00,Wunderground v.1.15,2013-01-31 14:10:00,
2013-01-31 06:15:00,51.1,27.6,30.19,ENE,58,0.0,1.0,40,0.00,,,0.00,Wunderground v.1.15,2013-01-31 14:15:00,
2013-01-31 06:20:00,50.9,27.4,30.19,NNE,29,1.0,1.0,40,0.00,,,0.00,Wunderground v.1.15,2013-01-31 14:20:00,
2013-01-31 06:25:00,50.7,26.6,30.19,NNW,344,1.0,1.0,39,0.00,,,0.00,Wunderground v.1.15,2013-01-31 14:25:00,
2013-01-31 06:30:00,50.8,26.1,30.19,North,8,1.0,1.0,38,0.00,,,0.00,Wunderground v.1.15,2013-01-31 14:30:00,
2013-01-31 06:35:00,50.6,26.5,30.19,North,356,1.0,1.0,39,0.00,,,0.00,Wunderground v.1.15,2013-01-31 14:35:00,
2013-01-31 06:40:00,50.6,26.5,30.19,North,360,0.0,0.0,39,0.00,,,0.00,Wunderground v.1.15,2013-01-31 14:40:00,
2013-01-31 06:50:00,50.5,25.2,30.20,NNE,19,0.0,0.0,37,0.00,,,0.00,Wunderground v.1.15,2013-01-31 14:50:00,
2013-01-31 06:55:00,50.9,25.5,30.20,NE,45,0.0,0.0,37,0.00,,,0.00,Wunderground v.1.15,2013-01-31 14:55:00,
2013-01-31 07:00:00,51.0,25.6,30.20,ENE,58,1.0,1.0,37,0.00,,,0.00,Wunderground v.1.15,2013-01-31 15:00:00,
2013-01-31 07:10:00,50.6,25.9,30.20,North,5,1.0,1.0,38,0.00,,,0.00,Wunderground v.1.15,2013-01-31 15:10:00,
2013-01-31 07:15:00,50.3,25.0,30.20,ENE,70,0.0,1.0,37,0.00,,,0.00,Wunderground v.1.15,2013-01-31 15:15:00,
2013-01-31 07:20:00,50.7,24.7,30.20,North,360,0.0,0.0,36,0.00,,,0.00,Wunderground v.1.15,2013-01-31 15:20:00,
2013-01-31 07:25:00,50.7,26.0,30.20,North,9,0.0,0.0,38,0.00,,,0.00,Wunderground v.1.15,2013-01-31 15:25:00,
2013-01-31 07:35:00,50.6,25.9,30.20,North,357,0.0,0.0,38,0.00,,,0.00,Wunderground v.1.15,2013-01-31 15:35:00,
2013-01-31 07:40:00,50.4,25.7,30.20,NW,326,1.0,1.0,38,0.00,,,0.00,Wunderground v.1.15,2013-01-31 15:40:00,
2013-01-31 07:45:00,50.2,26.8,30.20,NNW,332,0.0,1.0,40,0.00,,,0.00,Wunderground v.1.15,2013-01-31 15:45:00,
2013-01-31 07:50:00,50.1,26.1,30.20,NE,39,0.0,0.0,39,0.00,,,0.00,Wunderground v.1.15,2013-01-31 15:50:00,
2013-01-31 07:55:00,50.5,24.5,30.20,North,351,0.0,0.0,36,0.00,,,0.00,Wunderground v.1.15,2013-01-31 15:55:00,
2013-01-31 08:00:00,51.6,24.8,30.20,NE,53,0.0,0.0,35,0.00,,,0.00,Wunderground v.1.15,2013-01-31 16:00:00,
2013-01-31 08:10:00,52.1,26.6,30.20,NE,49,0.0,0.0,37,0.00,,,0.00,Wunderground v.1.15,2013-01-31 16:10:00,
2013-01-31 08:15:00,52.3,27.4,30.20,North,8,0.0,0.0,38,0.00,,,0.00,Wunderground v.1.15,2013-01-31 16:15:00,
2013-01-31 08:25:00,53.4,25.0,30.20,NNE,26,0.0,0.0,33,0.00,,,0.00,Wunderground v.1.15,2013-01-31 16:25:00,
2013-01-31 08:30:00,53.9,30.7,30.20,NNE,29,0.0,0.0,41,0.00,,,0.00,Wunderground v.1.15,2013-01-31 16:30:00,
2013-01-31 08:35:00,53.9,31.3,30.20,East,94,1.0,2.0,42,0.00,,,0.00,Wunderground v.1.15,2013-01-31 16:35:00,
2013-01-31 08:40:00,54.3,31.1,30.20,East,101,1.0,1.0,41,0.00,,,0.00,Wunderground v.1.15,2013-01-31 16:40:00,
2013-01-31 08:45:00,54.7,29.6,30.21,NNW,342,0.0,1.0,38,0.00,,,0.00,Wunderground v.1.15,2013-01-31 16:45:00,
2013-01-31 08:50:00,55.5,30.9,30.21,NW,324,1.0,1.0,39,0.00,,,0.00,Wunderground v.1.15,2013-01-31 16:50:00,
2013-01-31 08:55:00,56.2,30.9,30.21,WNW,287,1.0,2.0,38,0.00,,,0.00,Wunderground v.1.15,2013-01-31 16:55:00,
2013-01-31 09:00:00,56.9,30.9,30.21,WNW,287,1.0,1.0,37,0.00,,,0.00,Wunderground v.1.15,2013-01-31 17:00:00,
2013-01-31 09:10:00,59.2,34.9,30.22,ENE,61,0.0,0.0,40,0.00,,,0.00,Wunderground v.1.15,2013-01-31 17:10:00,
2013-01-31 09:15:00,60.4,34.7,30.22,ENE,65,0.0,0.0,38,0.00,,,0.00,Wunderground v.1.15,2013-01-31 17:15:00,
2013-01-31 09:20:00,60.9,37.0,30.22,East,98,0.0,2.0,41,0.00,,,0.00,Wunderground v.1.15,2013-01-31 17:20:00,
2013-01-31 09:25:00,60.2,36.4,30.22,ENE,77,1.0,2.0,41,0.00,,,0.00,Wunderground v.1.15,2013-01-31 17:25:00,
2013-01-31 09:30:00,60.3,38.9,30.22,East,83,2.0,2.0,45,0.00,,,0.00,Wunderground v.1.15,2013-01-31 17:30:00,
2013-01-31 09:35:00,60.2,37.6,30.22,East,97,3.0,3.0,43,0.00,,,0.00,Wunderground v.1.15,2013-01-31 17:35:00,
2013-01-31 09:45:00,61.3,38.0,30.22,East,88,2.0,2.0,42,0.00,,,0.00,Wunderground v.1.15,2013-01-31 17:45:00,
2013-01-31 09:55:00,62.3,38.9,30.22,SSW,207,1.0,1.0,42,0.00,,,0.00,Wunderground v.1.15,2013-01-31 17:55:00,
2013-01-31 10:05:00,64.4,37.5,30.22,WSW,238,0.0,0.0,37,0.00,,,0.00,Wunderground v.1.15,2013-01-31 18:05:00,
2013-01-31 10:10:00,63.6,37.5,30.22,WNW,290,0.0,0.0,38,0.00,,,0.00,Wunderground v.1.15,2013-01-31 18:10:00,
2013-01-31 10:15:00,63.0,37.6,30.22,WNW,290,0.0,0.0,39,0.00,,,0.00,Wunderground v.1.15,2013-01-31 18:15:00,
2013-01-31 10:20:00,63.3,37.9,30.23,SW,235,0.0,1.0,39,0.00,,,0.00,Wunderground v.1.15,2013-01-31 18:20:00,
2013-01-31 10:30:00,63.4,39.3,30.22,WSW,248,0.0,1.0,41,0.00,,,0.00,Wunderground v.1.15,2013-01-31 18:30:00,
2013-01-31 10:35:00,63.9,39.7,30.22,WSW,245,0.0,0.0,41,0.00,,,0.00,Wunderground v.1.15,2013-01-31 18:35:00,
2013-01-31 10:45:00,64.2,40.0,30.22,WNW,283,0.0,1.0,41,0.00,,,0.00,Wunderground v.1.15,2013-01-31 18:45:00,
2013-01-31 10:50:00,64.5,40.9,30.22,WSW,250,0.0,1.0,42,0.00,,,0.00,Wunderground v.1.15,2013-01-31 18:50:00,
2013-01-31 10:55:00,64.7,41.1,30.21,WSW,252,0.0,0.0,42,0.00,,,0.00,Wunderground v.1.15,2013-01-31 18:55:00,
2013-01-31 11:00:00,64.9,40.0,30.21,West,266,0.0,0.0,40,0.00,,,0.00,Wunderground v.1.15,2013-01-31 19:00:00,
2013-01-31 11:10:00,65.3,41.0,30.21,West,260,0.0,0.0,41,0.00,,,0.00,Wunderground v.1.15,2013-01-31 19:10:00,
2013-01-31 11:15:00,64.6,39.7,30.21,NW,309,1.0,2.0,40,0.00,,,0.00,Wunderground v.1.15,2013-01-31 19:15:00,
2013-01-31 11:20:00,63.4,40.5,30.21,WNW,290,2.0,2.0,43,0.00,,,0.00,Wunderground v.1.15,2013-01-31 19:20:00,
2013-01-31 11:25:00,63.0,41.9,30.21,WNW,295,2.0,2.0,46,0.00,,,0.00,Wunderground v.1.15,2013-01-31 19:25:00,
2013-01-31 11:30:00,63.3,42.2,30.21,WNW,290,1.0,1.0,46,0.00,,,0.00,Wunderground v.1.15,2013-01-31 19:30:00,
2013-01-31 11:35:00,64.3,41.3,30.20,WSW,257,0.0,1.0,43,0.00,,,0.00,Wunderground v.1.15,2013-01-31 19:35:00,
2013-01-31 11:45:00,65.3,42.2,30.20,West,280,0.0,2.0,43,0.00,,,0.00,Wunderground v.1.15,2013-01-31 19:45:00,
2013-01-31 11:50:00,65.5,42.4,30.20,NW,305,0.0,0.0,43,0.00,,,0.00,Wunderground v.1.15,2013-01-31 19:50:00,
2013-01-31 11:55:00,65.8,42.7,30.20,WNW,284,0.0,2.0,43,0.00,,,0.00,Wunderground v.1.15,2013-01-31 19:55:00,
2013-01-31 12:00:00,65.1,42.0,30.20,NW,321,1.0,1.0,43,0.00,,,0.00,Wunderground v.1.15,2013-01-31 20:00:00,
2013-01-31 12:10:00,65.2,42.1,30.19,WNW,283,1.0,2.0,43,0.00,,,0.00,Wunderground v.1.15,2013-01-31 20:10:00,
2013-01-31 12:20:00,64.7,42.3,30.19,WNW,289,1.0,1.0,44,0.00,,,0.00,Wunderground v.1.15,2013-01-31 20:20:00,
2013-01-31 12:25:00,64.9,42.5,30.19,WNW,294,1.0,1.0,44,0.00,,,0.00,Wunderground v.1.15,2013-01-31 20:25:00,
2013-01-31 12:30:00,65.2,42.7,30.18,NW,322,1.0,1.0,44,0.00,,,0.00,Wunderground v.1.15,2013-01-31 20:30:00,
2013-01-31 12:35:00,65.4,42.3,30.18,WNW,290,1.0,1.0,43,0.00,,,0.00,Wunderground v.1.15,2013-01-31 20:35:00,
2013-01-31 12:40:00,64.9,42.5,30.18,WNW,291,1.0,1.0,44,0.00,,,0.00,Wunderground v.1.15,2013-01-31 20:40:00,
2013-01-31 12:45:00,64.4,42.0,30.18,West,274,2.0,2.0,44,0.00,,,0.00,Wunderground v.1.15,2013-01-31 20:45:00,
2013-01-31 12:50:00,64.2,42.4,30.17,WNW,291,1.0,1.0,45,0.00,,,0.00,Wunderground v.1.15,2013-01-31 20:50:00,
2013-01-31 12:55:00,64.4,42.0,30.17,WNW,282,1.0,1.0,44,0.00,,,0.00,Wunderground v.1.15,2013-01-31 20:55:00,
2013-01-31 13:00:00,64.8,42.9,30.17,West,269,1.0,1.0,45,0.00,,,0.00,Wunderground v.1.15,2013-01-31 21:00:00,
2013-01-31 13:10:00,64.2,43.5,30.17,WNW,284,1.0,1.0,47,0.00,,,0.00,Wunderground v.1.15,2013-01-31 21:10:00,
2013-01-31 13:15:00,63.7,43.6,30.17,WNW,282,2.0,2.0,48,0.00,,,0.00,Wunderground v.1.15,2013-01-31 21:15:00,
2013-01-31 13:20:00,62.9,43.4,30.17,WNW,284,2.0,2.0,49,0.00,,,0.00,Wunderground v.1.15,2013-01-31 21:20:00,
2013-01-31 13:30:00,63.2,43.7,30.17,NNW,345,1.0,1.0,49,0.00,,,0.00,Wunderground v.1.15,2013-01-31 21:30:00,
2013-01-31 13:35:00,64.6,43.9,30.17,WNW,288,1.0,2.0,47,0.00,,,0.00,Wunderground v.1.15,2013-01-31 21:35:00,
2013-01-31 13:40:00,64.7,44.0,30.17,WNW,290,1.0,1.0,47,0.00,,,0.00,Wunderground v.1.15,2013-01-31 21:40:00,
2013-01-31 13:45:00,65.0,43.7,30.16,WNW,293,1.0,3.0,46,0.00,,,0.00,Wunderground v.1.15,2013-01-31 21:45:00,
2013-01-31 13:50:00,64.6,44.5,30.16,WNW,287,1.0,1.0,48,0.00,,,0.00,Wunderground v.1.15,2013-01-31 21:50:00,
2013-01-31 14:00:00,65.4,45.2,30.16,SW,224,1.0,1.0,48,0.00,,,0.00,Wunderground v.1.15,2013-01-31 22:00:00,
2013-01-31 14:10:00,66.5,44.5,30.16,WSW,243,0.0,1.0,45,0.00,,,0.00,Wunderground v.1.15,2013-01-31 22:10:00,
2013-01-31 14:20:00,67.0,44.9,30.16,SW,231,0.0,0.0,45,0.00,,,0.00,Wunderground v.1.15,2013-01-31 22:20:00,
2013-01-31 14:25:00,67.2,45.1,30.16,NW,309,0.0,0.0,45,0.00,,,0.00,Wunderground v.1.15,2013-01-31 22:25:00,
2013-01-31 14:30:00,67.4,44.7,30.15,SW,235,0.0,0.0,44,0.00,,,0.00,Wunderground v.1.15,2013-01-31 22:30:00,
2013-01-31 14:40:00,67.3,43.4,30.15,West,278,0.0,0.0,42,0.00,,,0.00,Wunderground v.1.15,2013-01-31 22:40:00,
2013-01-31 14:45:00,66.8,43.6,30.15,West,278,0.0,1.0,43,0.00,,,0.00,Wunderground v.1.15,2013-01-31 22:45:00,
2013-01-31 14:55:00,66.8,44.2,30.14,NW,311,1.0,1.0,44,0.00,,,0.00,Wunderground v.1.15,2013-01-31 22:55:00,
2013-01-31 15:00:00,66.6,44.0,30.14,West,272,1.0,1.0,44,0.00,,,0.00,Wunderground v.1.15,2013-01-31 23:00:00,
2013-01-31 15:10:00,66.2,43.0,30.15,WNW,289,1.0,1.0,43,0.00,,,0.00,Wunderground v.1.15,2013-01-31 23:10:00,
2013-01-31 15:20:00,66.6,43.4,30.14,WSW,242,0.0,1.0,43,0.00,,,0.00,Wunderground v.1.15,2013-01-31 23:20:00,
2013-01-31 15:30:00,66.4,43.2,30.14,West,276,0.0,1.0,43,0.00,,,0.00,Wunderground v.1.15,2013-01-31 23:30:00,
2013-01-31 15:35:00,65.8,43.3,30.14,West,270,0.0,1.0,44,0.00,,,0.00,Wunderground v.1.15,2013-01-31 23:35:00,
2013-01-31 15:40:00,64.9,42.5,30.14,West,276,1.0,1.0,44,0.00,,,0.00,Wunderground v.1.15,2013-01-31 23:40:00,
2013-01-31 15:45:00,64.7,42.9,30.14,WNW,287,1.0,1.0,45,0.00,,,0.00,Wunderground v.1.15,2013-01-31 23:45:00,
2013-01-31 15:50:00,64.5,42.7,30.14,West,259,1.0,1.0,45,0.00,,,0.00,Wunderground v.1.15,2013-01-31 23:50:00,
2013-01-31 15:55:00,64.2,42.4,30.14,West,276,1.0,1.0,45,0.00,,,0.00,Wunderground v.1.15,2013-01-31 23:55:00,
2013-01-31 16:00:00,63.1,40.8,30.15,West,267,1.0,2.0,44,0.00,,,0.00,Wunderground v.1.15,2013-02-01 00:00:00,
2013-01-31 16:10:00,62.6,41.5,30.15,WSW,257,1.0,1.0,46,0.00,,,0.00,Wunderground v.1.15,2013-02-01 00:10:00,
2013-01-31 16:15:00,62.5,43.1,30.14,WSW,248,1.0,1.0,49,0.00,,,0.00,Wunderground v.1.15,2013-02-01 00:15:00,
2013-01-31 16:20:00,63.0,41.9,30.14,WSW,248,0.0,0.0,46,0.00,,,0.00,Wunderground v.1.15,2013-02-01 00:20:00,
2013-01-31 16:25:00,63.0,41.9,30.14,WSW,248,0.0,0.0,46,0.00,,,0.00,Wunderground v.1.15,2013-02-01 00:25:00,
2013-01-31 16:30:00,62.9,41.2,30.14,WSW,247,0.0,0.0,45,0.00,,,0.00,Wunderground v.1.15,2013-02-01 00:30:00,
2013-01-31 16:35:00,62.4,42.4,30.14,WSW,248,0.0,0.0,48,0.00,,,0.00,Wunderground v.1.15,2013-02-01 00:35:00,
2013-01-31 16:40:00,61.9,44.6,30.14,SE,129,0.0,1.0,53,0.00,,,0.00,Wunderground v.1.15,2013-02-01 00:40:00,
2013-01-31 16:45:00,61.4,45.1,30.14,East,94,0.0,1.0,55,0.00,,,0.00,Wunderground v.1.15,2013-02-01 00:45:00,
2013-01-31 16:50:00,61.5,44.7,30.14,East,94,0.0,0.0,54,0.00,,,0.00,Wunderground v.1.15,2013-02-01 00:50:00,
2013-01-31 16:55:00,61.2,42.9,30.14,East,94,0.0,0.0,51,0.00,,,0.00,Wunderground v.1.15,2013-02-01 00:55:00,
2013-01-31 17:00:00,60.1,44.8,30.14,East,94,0.0,1.0,57,0.00,,,0.00,Wunderground v.1.15,2013-02-01 01:00:00,
2013-01-31 17:10:00,58.4,45.0,30.14,East,87,1.0,1.0,61,0.00,,,0.00,Wunderground v.1.15,2013-02-01 01:10:00,
2013-01-31 17:15:00,58.5,44.7,30.14,ENE,74,0.0,1.0,60,0.00,,,0.00,Wunderground v.1.15,2013-02-01 01:15:00,
2013-01-31 17:20:00,58.4,44.1,30.14,ENE,69,0.0,0.0,59,0.00,,,0.00,Wunderground v.1.15,2013-02-01 01:20:00,
2013-01-31 17:25:00,58.1,43.8,30.14,ENE,70,0.0,0.0,59,0.00,,,0.00,Wunderground v.1.15,2013-02-01 01:25:00,
2013-01-31 17:30:00,57.6,43.8,30.13,ENE,70,0.0,0.0,60,0.00,,,0.00,Wunderground v.1.15,2013-02-01 01:30:00,
2013-01-31 17:35:00,57.0,43.7,30.13,ENE,70,0.0,0.0,61,0.00,,,0.00,Wunderground v.1.15,2013-02-01 01:35:00,
2013-01-31 17:40:00,56.5,44.0,30.13,North,351,0.0,0.0,63,0.00,,,0.00,Wunderground v.1.15,2013-02-01 01:40:00,
2013-01-31 17:45:00,56.2,43.8,30.13,ENE,76,0.0,0.0,63,0.00,,,0.00,Wunderground v.1.15,2013-02-01 01:45:00,
2013-01-31 17:50:00,56.1,44.1,30.13,NE,41,0.0,0.0,64,0.00,,,0.00,Wunderground v.1.15,2013-02-01 01:50:00,
2013-01-31 18:00:00,55.8,43.8,30.13,WNW,294,0.0,0.0,64,0.00,,,0.00,Wunderground v.1.15,2013-02-01 02:00:00,
2013-01-31 18:15:00,55.9,43.1,30.13,NE,37,0.0,0.0,62,0.00,,,0.00,Wunderground v.1.15,2013-02-01 02:15:00,
2013-01-31 18:20:00,56.4,43.1,30.13,NE,37,0.0,1.0,61,0.00,,,0.00,Wunderground v.1.15,2013-02-01 02:20:00,
2013-01-31 18:25:00,56.5,42.8,30.13,NNE,12,0.0,0.0,60,0.00,,,0.00,Wunderground v.1.15,2013-02-01 02:25:00,
2013-01-31 18:30:00,56.3,42.6,30.13,NNE,26,0.0,0.0,60,0.00,,,0.00,Wunderground v.1.15,2013-02-01 02:30:00,
2013-01-31 18:40:00,56.0,42.3,30.14,North,7,0.0,1.0,60,0.00,,,0.00,Wunderground v.1.15,2013-02-01 02:40:00,
2013-01-31 18:45:00,56.2,42.1,30.13,NW,321,0.0,0.0,59,0.00,,,0.00,Wunderground v.1.15,2013-02-01 02:45:00,
2013-01-31 18:50:00,56.3,42.1,30.13,NE,38,0.0,1.0,59,0.00,,,0.00,Wunderground v.1.15,2013-02-01 02:50:00,
2013-01-31 18:55:00,56.1,42.0,30.13,NNW,347,0.0,0.0,59,0.00,,,0.00,Wunderground v.1.15,2013-02-01 02:55:00,
2013-01-31 19:00:00,56.0,41.9,30.13,NNE,30,0.0,0.0,59,0.00,,,0.00,Wunderground v.1.15,2013-02-01 03:00:00,
2013-01-31 19:10:00,56.1,42.0,30.13,NW,308,1.0,2.0,59,0.00,,,0.00,Wunderground v.1.15,2013-02-01 03:10:00,
2013-01-31 19:15:00,56.0,41.9,30.14,NE,41,1.0,2.0,59,0.00,,,0.00,Wunderground v.1.15,2013-02-01 03:15:00,
2013-01-31 19:20:00,56.1,41.5,30.14,North,359,1.0,1.0,58,0.00,,,0.00,Wunderground v.1.15,2013-02-01 03:20:00,
2013-01-31 19:25:00,56.2,41.2,30.13,NE,56,0.0,1.0,57,0.00,,,0.00,Wunderground v.1.15,2013-02-01 03:25:00,
2013-01-31 19:30:00,56.1,41.1,30.14,NNW,340,0.0,0.0,57,0.00,,,0.00,Wunderground v.1.15,2013-02-01 03:30:00,
2013-01-31 19:40:00,56.1,40.6,30.14,North,360,1.0,1.0,56,0.00,,,0.00,Wunderground v.1.15,2013-02-01 03:40:00,
2013-01-31 19:45:00,56.1,40.6,30.14,North,355,1.0,1.0,56,0.00,,,0.00,Wunderground v.1.15,2013-02-01 03:45:00,
2013-01-31 19:50:00,56.2,40.2,30.14,ENE,78,0.0,0.0,55,0.00,,,0.00,Wunderground v.1.15,2013-02-01 03:50:00,
2013-01-31 19:55:00,56.2,40.2,30.14,NNE,21,0.0,0.0,55,0.00,,,0.00,Wunderground v.1.15,2013-02-01 03:55:00,
2013-01-31 20:00:00,56.3,39.9,30.14,NW,326,0.0,0.0,54,0.00,,,0.00,Wunderground v.1.15,2013-02-01 04:00:00,
2013-01-31 20:10:00,56.1,39.7,30.15,ENE,76,1.0,1.0,54,0.00,,,0.00,Wunderground v.1.15,2013-02-01 04:10:00,
2013-01-31 20:15:00,56.1,39.7,30.15,NNE,20,1.0,1.0,54,0.00,,,0.00,Wunderground v.1.15,2013-02-01 04:15:00,
2013-01-31 20:20:00,56.2,39.3,30.14,ESE,112,1.0,1.0,53,0.00,,,0.00,Wunderground v.1.15,2013-02-01 04:20:00,
2013-01-31 20:25:00,55.8,39.4,30.14,East,93,1.0,1.0,54,0.00,,,0.00,Wunderground v.1.15,2013-02-01 04:25:00,
2013-01-31 20:30:00,55.9,39.0,30.14,ENE,76,1.0,1.0,53,0.00,,,0.00,Wunderground v.1.15,2013-02-01 04:30:00,
2013-01-31 20:35:00,56.5,39.6,30.14,NNW,331,1.0,1.0,53,0.00,,,0.00,Wunderground v.1.15,2013-02-01 04:35:00,
2013-01-31 20:45:00,56.3,39.4,30.15,East,100,1.0,1.0,53,0.00,,,0.00,Wunderground v.1.15,2013-02-01 04:45:00,
2013-01-31 20:55:00,56.0,38.6,30.14,NE,44,0.0,0.0,52,0.00,,,0.00,Wunderground v.1.15,2013-02-01 04:55:00,
2013-01-31 21:00:00,56.3,38.9,30.14,NNW,342,0.0,1.0,52,0.00,,,0.00,Wunderground v.1.15,2013-02-01 05:00:00,
2013-01-31 21:05:00,56.1,38.7,30.14,NNE,13,0.0,1.0,52,0.00,,,0.00,Wunderground v.1.15,2013-02-01 05:05:00,
2013-01-31 21:15:00,56.0,39.1,30.14,ENE,60,0.0,1.0,53,0.00,,,0.00,Wunderground v.1.15,2013-02-01 05:15:00,
2013-01-31 21:20:00,56.0,38.6,30.14,NE,50,0.0,0.0,52,0.00,,,0.00,Wunderground v.1.15,2013-02-01 05:20:00,
2013-01-31 21:25:00,56.2,38.3,30.14,West,263,1.0,2.0,51,0.00,,,0.00,Wunderground v.1.15,2013-02-01 05:25:00,
2013-01-31 21:30:00,56.1,37.7,30.14,NE,47,1.0,2.0,50,0.00,,,0.00,Wunderground v.1.15,2013-02-01 05:30:00,
2013-01-31 21:40:00,56.4,38.0,30.14,NE,46,1.0,1.0,50,0.00,,,0.00,Wunderground v.1.15,2013-02-01 05:40:00,
2013-01-31 21:45:00,56.2,37.3,30.14,NW,323,1.0,1.0,49,0.00,,,0.00,Wunderground v.1.15,2013-02-01 05:45:00,
2013-01-31 21:55:00,56.0,37.1,30.14,North,4,0.0,0.0,49,0.00,,,0.00,Wunderground v.1.15,2013-02-01 05:55:00,
2013-01-31 22:00:00,56.0,36.6,30.14,NW,320,0.0,0.0,48,0.00,,,0.00,Wunderground v.1.15,2013-02-01 06:00:00,
2013-01-31 22:10:00,56.1,35.6,30.14,ESE,119,0.0,2.0,46,0.00,,,0.00,Wunderground v.1.15,2013-02-01 06:10:00,
2013-01-31 22:15:00,56.3,35.8,30.14,NNE,13,0.0,2.0,46,0.00,,,0.00,Wunderground v.1.15,2013-02-01 06:15:00,
2013-01-31 22:20:00,56.6,36.0,30.14,North,3,1.0,1.0,46,0.00,,,0.00,Wunderground v.1.15,2013-02-01 06:20:00,
2013-01-31 22:30:00,56.7,35.0,30.13,North,356,1.0,1.0,44,0.00,,,0.00,Wunderground v.1.15,2013-02-01 06:30:00,
2013-01-31 22:35:00,56.6,34.9,30.13,NE,36,1.0,1.0,44,0.00,,,0.00,Wunderground v.1.15,2013-02-01 06:35:00,
2013-01-31 22:40:00,56.6,34.9,30.14,NNE,21,1.0,1.0,44,0.00,,,0.00,Wunderground v.1.15,2013-02-01 06:40:00,
2013-01-31 22:45:00,56.8,34.5,30.14,NNE,22,0.0,1.0,43,0.00,,,0.00,Wunderground v.1.15,2013-02-01 06:45:00,
2013-01-31 22:50:00,56.7,35.0,30.14,NNW,337,0.0,2.0,44,0.00,,,0.00,Wunderground v.1.15,2013-02-01 06:50:00,
2013-01-31 23:00:00,56.4,34.2,30.13,ESE,123,0.0,3.0,43,0.00,,,0.00,Wunderground v.1.15,2013-02-01 07:00:00,
2013-01-31 23:10:00,56.0,33.8,30.13,NW,320,1.0,1.0,43,0.00,,,0.00,Wunderground v.1.15,2013-02-01 07:10:00,
2013-01-31 23:15:00,55.8,33.6,30.13,ENE,74,1.0,1.0,43,0.00,,,0.00,Wunderground v.1.15,2013-02-01 07:15:00,
2013-01-31 23:20:00,55.7,33.5,30.13,NNE,30,1.0,1.0,43,0.00,,,0.00,Wunderground v.1.15,2013-02-01 07:20:00,
2013-01-31 23:30:00,55.5,33.9,30.13,North,7,0.0,1.0,44,0.00,,,0.00,Wunderground v.1.15,2013-02-01 07:30:00,
2013-01-31 23:35:00,55.3,34.3,30.13,ENE,76,0.0,1.0,45,0.00,,,0.00,Wunderground v.1.15,2013-02-01 07:35:00,
2013-01-31 23:40:00,55.3,34.3,30.13,NE,50,0.0,0.0,45,0.00,,,0.00,Wunderground v.1.15,2013-02-01 07:40:00,
2013-01-31 23:45:00,55.7,34.1,30.13,NNE,14,0.0,0.0,44,0.00,,,0.00,Wunderground v.1.15,2013-02-01 07:45:00,
2013-01-31 23:50:00,55.5,34.5,30.13,NNW,335,0.0,0.0,45,0.00,,,0.00,Wunderground v.1.15,2013-02-01 07:50:00,